MONITOR-3 (RS58S)

Last updated on Mon Feb 16 2026 00:03:10 GMT+0000 (Coordinated Universal Time)

1 57180U 23091Q 26046.60635662 .00012757 00000+0 51023-3 0 9993 2 57180 97.5257 109.3005 0012912 162.6212 197.5470 15.25156022145744
UTC large
Height (km)
Speed (km/s)
/
Latitude / Longitude
Inclination (degrees)
Orbital Period (minutes)
Azimuth
Elevation
Range (km)
Doppler Factor

Next 0 passes for location: London (51.5072 / 0.1276)

Sorry there are no passes over London.